x

9410840 - Santa Monica Pier (icac1) Weather Station

10:30 - Sat 28th May 2016 All times are PDT. -7 hours from GMT.

  • Wind
    5mph, 6mph gusts
  • Sea Temp 62°f
  • Ar Temp 61°f
  • Sea Pressure 1012.9mb
  • 9410840 - Santa Monica Pier
  • 9410840 - Santa Monica Pier

More Historic Weather Station data

Upgrade to MSW Pro to gain access to the past 30 days of data for over 8000 Wavebouys and Weather Stations around the globe.

Join Pro

Comparision Forecast

View Surf forecast
   
Sáb 05/28 10:30 5 6 mph 1012.9mb 62f 61f
10:24 5 7 mph 1012.9mb 62f 61f
10:18 6 7 mph 1012.8mb 62f 61f
10:12 6 7 mph 1012.9mb 62f 61f
10:06 6 7 mph 1012.8mb 62f 61f
10:00 5 6 mph 1012.9mb 62f 61f
9:54 3 5 mph 1012.9mb 62f 61f
9:48 3
mph
1012.9mb 62f 61f
9:42 3
mph
1012.9mb 62f 61f
9:36 2 3 mph 1012.8mb 62f 61f
9:30 2 3 mph 1012.8mb 62f 61f
9:24 3
mph
1012.7mb 62f 61f
9:18 3
mph
1012.7mb 62f 61f
9:12 2 3 mph 1012.7mb 62f 61f
9:06 3 5 mph 1012.7mb 62f 61f
9:00 3 5 mph 1012.6mb 62f 61f
8:54 3 5 mph 1012.6mb 62f 61f
8:48 3 5 mph 1012.6mb 62f 61f
8:42 3
mph
1012.5mb 62f 61f
8:36 3 5 mph 1012.4mb 62f 61f
8:30 3 5 mph 1012.4mb 62f 61f
8:24 3 5 mph 1012.4mb 62f 61f
8:18 3
mph
1012.3mb 62f 61f
8:12 3 5 mph 1012.3mb 61f 61f
8:06 3 5 mph 1012.3mb 61f 61f
8:00 3 5 mph 1012.2mb 61f 61f
7:54 2
mph
1012.2mb 61f 61f
7:48 2 3 mph 1012.2mb 61f 61f
7:42 3
mph
1012.2mb 61f 61f
7:36 2 3 mph 1012.1mb 60f 61f
7:30 3
mph
1012mb 60f 61f
7:24 1 5 mph 1012mb 60f 60f
7:18 3 5 mph 1011.9mb 60f 60f
7:12 3
mph
1011.8mb 60f 60f
7:06 2 3 mph 1011.6mb 60f 60f
7:00 3
mph
1011.5mb 60f 60f
6:54 2 5 mph 1011.5mb 60f 60f
6:48 3 5 mph 1011.4mb 59f 60f
6:42 5
mph
1011.4mb 59f 60f
6:36 3 6 mph 1011.3mb 59f 60f
6:30 3 5 mph 1011.2mb 59f 60f
6:24 3 6 mph 1011.2mb 60f 60f
6:18 5 6 mph 1011.2mb 59f 60f
6:12 3 5 mph 1011.2mb 59f 60f
6:06 3 5 mph 1011.1mb 59f 60f
6:00 5 6 mph 1011.1mb 59f 60f
5:54 3 5 mph 1011mb 59f 60f
5:48 5 6 mph 1011mb 59f 60f
5:42 3 5 mph 1011mb 59f 60f
5:36 5 6 mph 1010.9mb 60f 60f
5:30 5 6 mph 1010.9mb 59f 60f
5:24 5 6 mph 1010.9mb 60f 60f
5:18 5 6 mph 1010.8mb 60f 60f
5:12 5
mph
1010.8mb 60f 60f
5:06 5 6 mph 1010.8mb 60f 60f
5:00 5 6 mph 1010.7mb 60f 60f
4:54 5 7 mph 1010.7mb 60f 60f
4:48 5 6 mph 1010.7mb 60f 60f
4:42 5 6 mph 1010.6mb 60f 59f
4:36 6 7 mph 1010.6mb 60f 59f
4:30 6
mph
1010.5mb 60f 59f
4:24 6 7 mph 1010.6mb 60f 59f
4:18 6 7 mph 1010.6mb 60f 60f
4:12 6 7 mph 1010.5mb 61f 59f
4:06 6 7 mph 1010.6mb 61f 59f
4:00 6 7 mph 1010.6mb 61f 59f
3:54 7 8 mph 1010.5mb 61f 59f
3:48 7
mph
1010.5mb 61f 59f
3:42 7 8 mph 1010.4mb 61f 59f
3:36 8 9 mph 1010.4mb 62f 59f
3:30 8 9 mph 1010.5mb 62f 59f
3:24 8 9 mph 1010.4mb 62f 59f
3:18 8 9 mph 1010.4mb 62f 60f
3:12 7 8 mph 1010.5mb 63f 59f
3:06 7 8 mph 1010.5mb 63f 59f
3:00 8
mph
1010.6mb 63f 59f
2:54 6 8 mph 1010.6mb 63f 60f
2:48 6 7 mph 1010.7mb 63f 60f
2:42 5 6 mph 1010.7mb 63f 60f
2:36 5 6 mph 1010.7mb 63f 60f
2:30 3 5 mph 1010.8mb 63f 60f
2:24 3 6 mph 1010.9mb 63f 60f
2:18 5 7 mph 1011mb 64f 60f
2:12 3 5 mph 1011mb 64f 60f
2:06 2 3 mph 1011.2mb 64f 60f
2:00 2 3 mph 1011.3mb 64f 60f
1:54 2 3 mph 1011.3mb 64f 60f
1:48 3 5 mph 1011.3mb 64f 60f
1:42 2 3 mph 1011.4mb 64f 60f
1:36 2 3 mph 1011.5mb 64f 60f
1:30  -  2 mph 1011.5mb 64f 60f
1:24  -  2 mph 1011.6mb 64f 60f
1:18 3 6 mph 1011.6mb 64f 60f
1:12 3 5 mph 1011.6mb 64f 60f
1:06 2 5 mph 1011.8mb 64f 60f
1:00 2 6 mph 1011.8mb 64f 60f
12:54 3 6 mph 1011.9mb 64f 60f
12:48 2 3 mph 1012mb 64f 60f
12:42 2 5 mph 1012mb 64f 60f
12:36 1 5 mph 1012.1mb 64f 60f
12:30 2 3 mph 1012mb 64f 59f
12:24 2 5 mph 1012mb 64f 60f
12:18 2 3 mph 1012.1mb 64f 59f
12:12 2 3 mph 1012mb 64f 59f
12:06 2 5 mph 1012mb 64f 59f
12:00 3 6 mph 1012mb 64f 59f
Sex 05/27 11:54 3 6 mph 1012mb 64f 59f
11:48  -  3 mph 1012.1mb 64f 59f
11:42 1 2 mph 1012.1mb 64f 59f
11:36 1 3 mph 1012.1mb 64f 60f
11:30 2 5 mph 1012.1mb 64f 60f
11:24 3 5 mph 1012mb 64f 59f
11:18 2
mph
1012.1mb 64f 59f
11:12  -  mph 1012.1mb 64f 59f
11:06  -  mph 1012.1mb 64f 59f
11:00  -  mph 1012.2mb 64f 59f
10:54  -  mph 1012.2mb 64f 59f
10:48  -  mph 1012.2mb 64f 59f
10:42 5 6 mph 1012.2mb 64f 59f
10:36 5 6 mph 1012.3mb 64f 59f
10:30 3 5 mph 1012.3mb 64f 59f
10:24 3 5 mph 1012.4mb 64f 59f
10:18 3 5 mph 1012.4mb 64f 59f
10:12 3 6 mph 1012.4mb 64f 59f
10:06 5 6 mph 1012.4mb 65f 59f
10:00 5 6 mph 1012.5mb 65f 59f
9:54 5 7 mph 1012.4mb 65f 59f
9:48 5 7 mph 1012.4mb 64f 59f
9:42 5 7 mph 1012.4mb 64f 59f
9:36 7 8 mph 1012.4mb 64f 59f
9:30 7 8 mph 1012.4mb 64f 59f
9:24 7 8 mph 1012.4mb 64f 59f
9:18 7 9 mph 1012.4mb 64f 59f
9:12 8 9 mph 1012.2mb 65f 60f
9:06 8 10 mph 1012.2mb 65f 59f
9:00 9 11 mph 1012.1mb 65f 59f
8:54 10 13 mph 1012mb 65f 59f
8:48 11 13 mph 1012mb 65f 59f
8:42  -  mph 1011.9mb 65f 60f
8:36  -  mph 1011.9mb 64f 59f
8:30 14 15 mph 1011.8mb 65f 59f
8:24 13 15 mph 1011.8mb 65f 59f
8:18 13 14 mph 1011.8mb 64f 59f
8:12  -  mph 1011.8mb 64f -
8:06  -  mph 1011.8mb 64f -
8:00 11 14 mph 1011.9mb 64f -
7:54 13 14 mph 1011.8mb 64f -
7:48 13 15 mph 1011.8mb 64f -
7:42  -  mph - 64f -
7:36  -  mph - 64f -
7:30  -  mph 1011.6mb - -
7:24  -  mph 1011.5mb - -
7:18  -  mph 1011.5mb - -
7:12  -  mph 1011.4mb - 60f
7:06  -  mph 1011.4mb - 60f
7:00 14 15 mph 1011.3mb - -
6:54 14 15 mph 1011.3mb - -
6:48 13 16 mph 1011.2mb - -
6:42  -  mph 1011.1mb 64f -
6:36  -  mph 1011mb 64f -
6:30 14 16 mph 1011mb 64f -
6:24 13 14 mph 1010.9mb 64f -
6:18 13 15 mph 1010.9mb 64f -
6:12  -  mph 1010.8mb 64f -
6:06  -  mph 1010.8mb 64f -
6:00 14 16 mph 1010.8mb - -
5:54 14 15 mph 1010.7mb - -
5:48 14 16 mph 1010.7mb - -
5:42  -  mph 1010.8mb 65f -
5:36  -  mph 1010.8mb 64f -
5:30 14 17 mph 1010.8mb 64f -
5:24 16 18 mph 1010.8mb 64f -
5:18 15 17 mph 1010.8mb 64f -
5:12  -  mph - 64f 61f
5:06  -  mph - 64f 61f
5:00  -  mph 1010.9mb 64f -
4:54  -  mph 1011mb 64f -
4:48  -  mph 1011.1mb 64f -
4:42  -  mph 1011mb 64f -
4:36  -  mph 1011.1mb 64f -
4:30 15 17 mph 1011.1mb 64f -
4:24 16 18 mph 1011.1mb 64f -
4:18 15 17 mph 1011.2mb 64f -
4:12  -  mph 1011.2mb 64f 62f
4:06  -  mph 1011.2mb 64f 62f
4:00 14 16 mph 1011.3mb - -
3:54 14 15 mph 1011.4mb - -
3:48 14 16 mph 1011.4mb - -
3:42  -  mph 1011.4mb - -
3:36  -  mph 1011.5mb - -
3:30 14 15 mph 1011.6mb 64f -
3:24 14 15 mph 1011.6mb 64f -
3:18 14 15 mph 1011.7mb 64f -
3:12  -  mph 1011.7mb 64f -
3:06  -  mph 1011.7mb 64f -
3:00  -  mph 1011.7mb - 62f
2:54  -  mph 1011.7mb - 62f
2:48  -  mph 1011.7mb - 62f
2:42  -  mph 1011.8mb 64f 62f
2:36  -  mph 1011.8mb 64f 62f
2:30 11 14 mph 1011.9mb 64f 62f
2:24 13 14 mph 1011.9mb 64f 62f
2:18 11 13 mph 1012mb 64f 62f
2:12 10 13 mph 1012.2mb 64f 62f
2:06 10 11 mph 1012.3mb 64f 62f
2:00 10 11 mph 1012.3mb 64f 62f
1:54 10 11 mph 1012.4mb 64f 62f
1:48 10 11 mph 1012.4mb 64f 62f
1:42 10 11 mph 1012.5mb 64f 62f
1:36 11 13 mph 1012.5mb 64f 62f
1:30 11 13 mph 1012.6mb 64f 61f
1:24 11 13 mph 1012.7mb 63f 61f
1:18 11 13 mph 1012.9mb 63f 61f
1:12 11 13 mph 1013mb 63f 61f
1:06 10 11 mph 1013.1mb 63f 62f
1:00 10 11 mph 1013.1mb 63f 61f
12:54 11 13 mph 1013.1mb 63f 61f
12:48 10 11 mph 1013.2mb 63f 61f
12:42 10 11 mph 1013.3mb 63f 61f
12:36 10 13 mph 1013.4mb 63f 61f
12:30 10 11 mph 1013.5mb 63f 61f
12:24 10 11 mph 1013.6mb 63f 61f
12:18 10 11 mph 1013.6mb 63f 61f
12:12 10 11 mph 1013.6mb 63f 61f
12:06 9 10 mph 1013.6mb 63f 61f
12:00 9 11 mph 1013.6mb 63f 61f
11:54 10
mph
1013.7mb 63f 61f
11:48 10
mph
1013.7mb 62f 61f
11:42 9 10 mph 1013.7mb 62f 61f
11:36 9 10 mph 1013.7mb 62f 61f
11:30 9 10 mph 1013.7mb 62f 61f
11:24 9 11 mph 1013.8mb 62f 61f
11:18 9 10 mph 1013.7mb 62f 61f
11:12 10 11 mph 1013.7mb 62f 62f
11:06 9 10 mph 1013.7mb 62f 62f
11:00 9 10 mph 1013.8mb 62f 62f
10:54 9 10 mph 1013.8mb 62f 62f
10:48 9 10 mph 1013.8mb 62f 61f
10:42 9 10 mph 1013.8mb 62f 62f
10:36 9 10 mph 1013.8mb 62f 62f
10:30 7 8 mph 1013.8mb 62f 62f
10:24 6 7 mph 1013.9mb 62f 62f
10:18 6
mph
1014mb 62f 62f
10:12 5
mph
1014mb 62f 62f
10:06 3 5 mph 1014.1mb 62f 62f
10:00 3
mph
1014.1mb 62f 62f
9:54 3
mph
1014.2mb 62f 62f
9:48 3 5 mph 1014.2mb 62f 62f
9:42 3
mph
1014.3mb 62f 62f
9:36 2 3 mph 1014.3mb 62f 62f
9:30 2
mph
1014.4mb 62f 62f
9:24 2
mph
1014.5mb 62f 62f
9:18 3 5 mph 1014.5mb 62f 62f
9:12 3
mph
1014.6mb 62f 62f
9:06 2 3 mph 1014.7mb 62f 62f
9:00 2 7 mph 1014.7mb 62f 62f
8:54  -  2 mph 1014.6mb 62f 62f
8:48 2 5 mph 1014.7mb 62f 62f
8:42 3 5 mph 1014.8mb 62f 62f
8:36 6 7 mph 1014.7mb 61f 62f
8:30 3 5 mph 1014.7mb 61f 62f
8:24 3 6 mph 1014.7mb 61f 62f
8:18 3 6 mph 1014.7mb 61f 62f
8:12 5 7 mph 1014.7mb 61f 61f
8:06 5 9 mph 1014.7mb 61f 61f
8:00 6 7 mph 1014.7mb 61f 61f
7:54 5 7 mph 1014.6mb 61f 61f
7:48 5 7 mph 1014.4mb 61f 61f
7:42 7 9 mph 1014.4mb 61f 61f
7:36 6 7 mph 1014.3mb 61f 61f
7:30 5 10 mph 1014.2mb 61f 61f
7:24 7 9 mph 1014.2mb 61f 61f
7:18 7 9 mph 1014.2mb 61f 61f
7:12 6 9 mph 1014.2mb 61f 61f
7:06 5 7 mph 1014.2mb 61f 61f
7:00 6 11 mph 1014.3mb 61f 60f
6:54 5 8 mph 1014.3mb 61f 60f
6:48 5 7 mph 1014.2mb 61f 59f
6:42 7 8 mph 1014.2mb 61f 59f
6:36 5 8 mph 1014.1mb 61f 59f
6:30 6 8 mph 1014.1mb 61f 59f
6:24 7 8 mph 1014.1mb 61f 58f
6:18 5 7 mph 1014.1mb 61f 58f
6:12 6 8 mph 1014.1mb 61f 58f
6:06 6 7 mph 1014.2mb 61f 58f
6:00 7 8 mph 1014.3mb 61f 58f
5:54 6 8 mph 1014.3mb 61f 58f
5:48 6
mph
1014.2mb 61f 58f
5:42 5 6 mph 1014.2mb 61f 58f
5:36 6
mph
1014.2mb 60f 58f
5:30 5 6 mph 1014.2mb 60f 58f
5:24 5 6 mph 1014.2mb 60f 58f
5:18 5
mph
1014.1mb 60f 58f
5:12 3 5 mph 1014.1mb 60f 58f
5:06 3 5 mph 1014.1mb 60f 58f
5:00 5
mph
1014.1mb 60f 58f
4:54 5
mph
1014.1mb 60f 58f
4:48 5
mph
1014.1mb 60f 58f
4:42 5
mph
1014.1mb 60f 58f
4:36 5
mph
1014.2mb 60f 58f
4:30 5 6 mph 1014.1mb 60f 58f
4:24 3 5 mph 1014.1mb 60f 58f
4:18 3 5 mph 1014.1mb 60f 58f
4:12 3 5 mph 1014.1mb 60f 59f
4:06 3 5 mph 1014.1mb 60f 59f
4:00 3 5 mph 1014.2mb 60f 59f
3:54 3 5 mph 1014.3mb 60f 58f
3:48 2 5 mph 1014.3mb 60f 58f
3:42 3 5 mph 1014.2mb 60f 58f
3:36 3 6 mph 1014.2mb 60f 58f
3:30 5 6 mph 1014.3mb 60f 58f
3:24 3 6 mph 1014.4mb 60f 58f
3:18 5 6 mph 1014.4mb 60f 58f
3:12 3 6 mph 1014.5mb 60f 59f
3:06 5 6 mph 1014.5mb 60f 59f
3:00 3 5 mph 1014.6mb 60f 59f
2:54 3 5 mph 1014.6mb 60f 59f
2:48 3 5 mph 1014.6mb 60f 59f
2:42 3 5 mph 1014.7mb 60f 59f
2:36 3 5 mph 1014.7mb 61f 59f
2:30 3 5 mph 1014.7mb 61f 59f
2:24 2 5 mph 1014.9mb 62f 59f
2:18 3 5 mph 1014.9mb 63f 59f
2:12 3
mph
1015mb 63f 59f
2:06 3 5 mph 1015.1mb 63f 59f
2:00 3 5 mph 1015.1mb 63f 59f
1:54 3 5 mph 1015.1mb 63f 59f
1:48 3 5 mph 1015.1mb 63f 59f
1:42 2 6 mph 1015.2mb 64f 59f
1:36 6
mph
1015.1mb 64f 59f
1:30 6 7 mph 1015.2mb 64f 59f
1:24 5 6 mph 1015.2mb 64f 59f
1:18 3 5 mph 1015.3mb 64f 59f
1:12 5 6 mph 1015.4mb 64f 59f
1:06 2 3 mph 1015.4mb 64f 59f
1:00 2 3 mph 1015.4mb 64f 59f
12:54 2 3 mph 1015.4mb 64f 59f
12:48 2 5 mph 1015.3mb 64f 59f
12:42 2 3 mph 1015.3mb 64f 60f
12:36 2
mph
1015.3mb 64f 60f
12:30 1 2 mph 1015.2mb 64f 60f
12:24 2
mph
1015.2mb 64f 60f
12:18  -  2 mph 1015.3mb 64f 60f
12:12 1 3 mph 1015.2mb 64f 60f
12:06 2 5 mph 1015.2mb 64f 60f
12:00 2 3 mph 1015.2mb 64f 60f
Qui 05/26 11:54  -  2 mph 1015.3mb 64f 60f
11:48  -  2 mph 1015.3mb 64f 60f
11:42 2 3 mph 1015.3mb 64f 60f
11:36 3
mph
1015.3mb 64f 60f
11:30 2 5 mph 1015.3mb 64f 60f
11:24 3 5 mph 1015.3mb 64f 60f
11:18 3 5 mph 1015.3mb 64f 60f
11:12 5 6 mph 1015.4mb 64f 60f
11:06 3 5 mph 1015.4mb 64f 60f
11:00  -  mph 1015.4mb 64f 60f
10:54  -  mph 1015.4mb 64f 61f
10:48  -  mph 1015.5mb 64f 60f
10:42  -  mph 1015.5mb 64f 60f
10:36  -  mph 1015.5mb 64f 60f
10:30 7 9 mph 1015.5mb 64f 60f
10:24 8 10 mph 1015.6mb 64f 61f
10:18 10
mph
1015.6mb 64f 60f
10:12 9 11 mph 1015.6mb 64f 60f
10:06 8 10 mph 1015.5mb 64f 60f
10:00 8 10 mph 1015.5mb 64f 61f
9:54 9 10 mph 1015.5mb 64f 61f
9:48 9 10 mph 1015.4mb 64f 61f
9:42 9 10 mph 1015.3mb 64f 61f
9:36 9 10 mph 1015.3mb 64f 60f
9:30 9 10 mph 1015.3mb 64f 60f
9:24 10 11 mph 1015.2mb 64f 60f
9:18 11
mph
1015.1mb 64f 60f
9:12 10 13 mph 1015mb 64f 60f
9:06 13 14 mph 1015mb 64f 61f
9:00 13 16 mph 1014.9mb 64f 60f
8:54 14 15 mph 1014.9mb 64f 61f
8:48 14 15 mph 1014.8mb 64f 60f
8:42  -  mph 1014.8mb 64f 61f
8:36  -  mph 1014.7mb 64f 60f
8:30 9 13 mph 1014.7mb 64f 61f
8:24 11 15 mph 1014.7mb 64f 61f
8:18 13 14 mph 1014.7mb 64f 61f
8:12  -  mph 1014.7mb 64f -
8:06  -  mph 1014.8mb 64f -
8:00  -  mph 1014.9mb 64f -
7:54  -  mph 1014.9mb 64f -
7:48 9 10 mph 1014.8mb - 60f
7:42 7 9 mph 1014.8mb - 60f
7:36 7 9 mph 1014.8mb - 60f
7:30 6 8 mph 1014.8mb - -
7:24 7 9 mph 1014.8mb - -
7:18 9 10 mph 1014.9mb - -
7:12  -  mph 1014.9mb 65f 60f
7:06  -  mph 1015mb 65f 60f
7:00  -  mph 1015mb - -
6:54  -  mph 1015mb - -
6:48  -  mph 1015mb - -
6:42  -  mph 1014.9mb - -
6:36  -  mph 1014.9mb - -
6:30 10 13 mph 1014.9mb - -
6:24 11 14 mph 1014.8mb - -
6:18 13 15 mph 1015mb - -
6:12  -  mph 1015mb 65f 60f
6:06  -  mph 1015mb 65f 60f
6:00  -  mph 1015.1mb - -
5:54  -  mph 1015.1mb - -
5:48  -  mph 1015.2mb - -
5:42  -  mph - - 60f
5:36  -  mph - - 60f
5:30 14 15 mph 1015.4mb 64f -
5:24 14 16 mph 1015.4mb 64f -
5:18 15 16 mph 1015.5mb 64f -
5:12  -  mph - 64f 60f
5:06  -  mph - 64f 60f
5:00  -  mph 1015.7mb - -
4:54  -  mph 1015.7mb - -
4:48  -  mph 1015.8mb - -
4:42  -  mph - 64f -
4:36  -  mph - 64f -
4:30 17 20 mph 1015.9mb 64f -
4:24 17 21 mph 1016mb 64f -
4:18 18 21 mph 1016mb 64f -
4:12  -  mph - 64f 60f
4:06  -  mph - 63f 60f
4:00 20 22 mph 1016.1mb - -
3:54 20 21 mph 1016.1mb - -
3:48  -  mph - 64f -
3:42  -  mph - 64f -
3:36  -  mph - 64f -
3:30 17 18 mph 1016.3mb 64f -
3:24 17 18 mph 1016.4mb 64f -
3:18 15 17 mph 1016.5mb 64f -
3:12  -  mph 1016.5mb 64f 61f
3:06  -  mph 1016.7mb 64f 61f
3:00 17 18 mph 1016.7mb 64f -
2:54 16 18 mph 1016.8mb 64f -
2:48 15 17 mph 1016.8mb 64f -
2:42  -  mph - 64f 61f
2:36  -  mph - 64f 61f
2:30 14 15 mph 1017.1mb 64f 61f
2:24 11 14 mph 1017.2mb 64f 62f
2:18 11 13 mph 1017.2mb 64f 61f
2:12 11 13 mph 1017.3mb 64f 61f
2:06 10 13 mph 1017.3mb 64f 61f
2:00 10 11 mph 1017.3mb 64f 61f
1:54 10 11 mph 1017.4mb 64f 62f
1:48 10 13 mph 1017.5mb 64f 61f
1:42 10 11 mph 1017.5mb 64f 63f
1:36 9 10 mph 1017.5mb 64f 62f
1:30 10 11 mph 1017.6mb 64f 62f
1:24 10 11 mph 1017.7mb 64f 62f
1:18 10
mph
1017.7mb 64f 62f
1:12 9 10 mph 1017.8mb 64f 62f
1:06 9 11 mph 1017.8mb 64f 62f
1:00 9 10 mph 1017.9mb 64f 62f
12:54 9 10 mph 1017.9mb 64f 62f
12:48 9 11 mph 1017.9mb 64f 62f
12:42 9 11 mph 1018mb 64f 62f
12:36 10 11 mph 1018.1mb 64f 62f
12:30 10 11 mph 1018.1mb 64f 62f
12:24 9 11 mph 1018.1mb 64f 62f
12:18 10 11 mph 1018.1mb 63f 62f
12:12 11 13 mph 1018.1mb 63f 62f
12:06 11
mph
1018.2mb 63f 62f
12:00 9 10 mph 1018.2mb 63f 62f
11:54 9 11 mph 1018.2mb 63f 62f
11:48 10 11 mph 1018.2mb 63f 62f
11:42 10 11 mph 1018.3mb 63f 62f
11:36 10 11 mph 1018.2mb 63f 61f
11:30 11 13 mph 1018.3mb 63f 62f
11:24 10 13 mph 1018.3mb 63f 62f
11:18 10 11 mph 1018.4mb 63f -
11:12 10 11 mph 1018.4mb 63f 62f
11:06 10 11 mph 1018.3mb 63f 62f
11:00 9 10 mph 1018.3mb 63f 61f
10:54 8 10 mph 1018.3mb 63f 62f
10:48 9 10 mph 1018.3mb 63f 62f
10:42  -  mph 1018.3mb 63f 62f
10:36  -  mph 1018.4mb 63f 62f
10:30 8 9 mph 1018.3mb 63f 62f
10:24 9 10 mph 1018.3mb 63f 62f
10:18 8 9 mph 1018.3mb 63f 62f
10:12 8 9 mph 1018.3mb 63f 62f
10:06 6 7 mph 1018.4mb 63f 62f
10:00 6 7 mph 1018.4mb 62f 62f
9:54 6
mph
1018.4mb 62f 62f
9:48 6 7 mph 1018.4mb 62f 62f
9:42 6
mph
1018.5mb 62f 62f
9:36 6
mph
1018.5mb 62f 62f
9:30 5 6 mph 1018.5mb 62f 62f
9:24 5
mph
1018.4mb 62f 62f
9:18 5
mph
1018.5mb 62f 62f
9:12 3 5 mph 1018.5mb 62f 62f
9:06 3 5 mph 1018.5mb 62f 62f
9:00 3 5 mph 1018.6mb 62f 62f
8:54 3
mph
1018.6mb 62f 62f
8:48 2
mph
1018.6mb 62f 62f
8:42 1 3 mph 1018.7mb 62f 62f
8:36  -  6 mph 1018.7mb 62f 62f
8:30 5 7 mph 1018.7mb 62f 62f
8:24 5 7 mph 1018.7mb 62f 62f
8:18 3 7 mph 1018.7mb 62f 61f
8:12 6 9 mph 1018.7mb 62f 62f
8:06 5 9 mph 1018.6mb 62f 62f
8:00 6 9 mph 1018.7mb 62f 62f
7:54 3 7 mph 1018.7mb 62f 62f
7:48 5 6 mph 1018.7mb 62f 61f
7:42 5 7 mph 1018.6mb 62f 61f
7:36 5 7 mph 1018.6mb 62f 61f
7:30 5 7 mph 1018.6mb 62f 60f
7:24 5 7 mph 1018.6mb 62f 60f
7:18 5 7 mph 1018.6mb 62f 60f
7:12 5 6 mph 1018.7mb 62f 60f
7:06 5 6 mph 1018.6mb 62f 59f
7:00 3 7 mph 1018.6mb 62f 59f
6:54 3 7 mph 1018.5mb 62f 59f
6:48 3 8 mph 1018.5mb 62f 59f
6:42 6 8 mph 1018.4mb 62f 59f
6:36 6 9 mph 1018.4mb 62f 59f
6:30 5 7 mph 1018.3mb 62f 59f
6:24 3 7 mph 1018.3mb 62f 58f
6:18 6 7 mph 1018.3mb 62f 58f
6:12 5 7 mph 1018.2mb 62f 58f
6:06 5 6 mph 1018.1mb 62f 58f
6:00 6 7 mph 1018mb 62f 58f
5:54 5 6 mph 1018mb 62f 58f
5:48 5 6 mph 1017.9mb 62f 58f
5:42 5 6 mph 1017.9mb 62f 58f
5:36 5 6 mph 1017.8mb 62f 58f
5:30 5 6 mph 1017.8mb 61f 58f
5:24 3 6 mph 1017.7mb 61f 58f
5:18 6 7 mph 1017.6mb 61f 58f
5:12 5 7 mph 1017.5mb 61f 58f
5:06 6 7 mph 1017.5mb 61f 58f
5:00 6 7 mph 1017.5mb 60f 58f
4:54 5 7 mph 1017.4mb 60f 58f
4:48 6 7 mph 1017.4mb 60f 58f
4:42 6 7 mph 1017.3mb 60f 58f
4:36 6 8 mph 1017.2mb 60f 58f
4:30 6 7 mph 1017.1mb 60f 58f
4:24 6 7 mph 1017.2mb 60f 58f
4:18 5 6 mph 1017.3mb 60f 58f
4:12 5 7 mph 1017.4mb 61f 58f
4:06 5 7 mph 1017.4mb 61f 58f
4:00 6 8 mph 1017.4mb 61f 58f
3:54 5 6 mph 1017.3mb 61f 58f
3:48 2 3 mph 1017.4mb 61f 58f
3:42 2 3 mph 1017.5mb 61f 58f
3:36 1 3 mph 1017.5mb 61f 58f
3:30 2 3 mph 1017.5mb 62f 59f
3:24 1 2 mph 1017.4mb 62f 59f
3:18  -  2 mph 1017.4mb 62f 59f
3:12 2 6 mph 1017.6mb 62f 59f
3:06 5 7 mph 1017.6mb 63f 59f
3:00 7 8 mph 1017.6mb 63f 59f
2:54 7 10 mph 1017.4mb 64f 59f
2:48 8 11 mph 1017.5mb 64f 59f
2:42 9 10 mph 1017.5mb 63f 59f
2:36 7 9 mph 1017.6mb 64f 58f
2:30 7 9 mph 1017.6mb 64f 58f
2:24 5 9 mph 1017.6mb 64f 58f
2:18 7 10 mph 1017.6mb 64f 58f
2:12 6 9 mph 1017.6mb 64f 58f
2:06 7 9 mph 1017.6mb 64f 58f
2:00 6 10 mph 1017.6mb 64f 58f
1:54 7 9 mph 1017.7mb 64f 58f
1:48 7 9 mph 1017.7mb 64f 58f
1:42 7 9 mph 1017.8mb 64f 58f
1:36 7 9 mph 1017.8mb 64f 58f
1:30 8 10 mph 1017.8mb 64f 58f
1:24 7 9 mph 1017.9mb 64f 58f
1:18 8
mph
1018mb 64f 58f
1:12 6 8 mph 1018.1mb 64f 58f
1:06 6 7 mph 1018mb 64f 58f
1:00 7 8 mph 1018mb 64f 58f
12:54 7 8 mph 1018mb 64f 58f
12:48 6 7 mph 1018.1mb 64f 58f
12:42 6 7 mph 1018.1mb 64f 58f
12:36 6 7 mph 1018.2mb 64f 58f
12:30 6 8 mph 1018.2mb 64f 58f
12:24 7
mph
1018.2mb 64f 58f
12:18 6 7 mph 1018.2mb 64f 59f
12:12 6 7 mph 1018.2mb 64f 59f
12:06 5 6 mph 1018.4mb 64f 59f
12:00 5 6 mph 1018.4mb 64f 59f
Qua 05/25 11:54 3 6 mph 1018.3mb 64f 59f
11:48  -  mph 1018.4mb 64f 59f
11:42  -  mph 1018.3mb 64f 59f
11:36  -  mph 1018.4mb 64f 59f
11:30 2 5 mph 1018.4mb 64f 59f
11:24 5
mph
1018.5mb 64f 59f
11:18 5
mph
1018.5mb 64f 59f
11:12 3 5 mph 1018.5mb 64f 59f
11:06 2 3 mph 1018.5mb 64f 59f
11:00 1 3 mph 1018.7mb 64f 59f
10:54 3
mph
1018.7mb 64f 59f
10:48 3 5 mph 1018.7mb 64f 59f
10:42 6 7 mph 1018.7mb 64f 59f
10:36 6 7 mph 1018.7mb 64f 60f
10:30 6 7 mph 1018.7mb 64f 59f
10:24 6 7 mph 1018.8mb 64f 59f
10:18 7 10 mph 1018.8mb 64f 60f
10:12 8 10 mph 1018.8mb 64f 59f
10:06 11 14 mph 1018.7mb 64f 59f
10:00 13 15 mph 1018.7mb 64f 59f
9:54 14 15 mph 1018.6mb 64f 59f
9:48 14 16 mph 1018.6mb 64f 60f
9:42 13 15 mph 1018.4mb 64f 59f
9:36 11 14 mph 1018.4mb 64f 60f
9:30 13 14 mph 1018.4mb 64f 59f
9:24 13 15 mph 1018.3mb 64f 60f
9:18 13 15 mph 1018.2mb 64f 60f
9:12 13 15 mph 1018.2mb 64f 60f
9:06 13 14 mph 1018.2mb 64f 60f
9:00 13 15 mph 1018.3mb 64f 60f
8:54 14 15 mph 1018.2mb 64f 60f
8:48 14 15 mph 1018.2mb 64f 60f
8:42  -  mph 1018.2mb 64f 60f
8:30 13 14 mph 1018.1mb 64f 60f
8:24 14 15 mph 1018.1mb 64f 59f
8:18 16 18 mph 1018.1mb 64f 59f
8:12  -  mph 1018.2mb 64f 60f
8:06  -  mph 1018.2mb 65f 60f
8:00  -  mph - 65f 60f
7:54  -  mph - 65f 60f
7:48  -  mph - 65f 61f
7:42  -  mph - 65f 61f
7:36  -  mph - 65f 61f
7:30  -  mph - 65f 61f
7:24 17 21 mph 1018.2mb 65f -
7:18 16 20 mph 1018.2mb 65f -
7:12  -  mph 1018.2mb 65f 61f
7:06  -  mph 1018.2mb 65f 60f
7:00 16 17 mph 1018.3mb 65f -
6:54 14 16 mph 1018.2mb 65f -
6:48 15 17 mph 1018.2mb 65f -
6:42  -  mph 1018.1mb 65f 60f
6:36  -  mph 1018.1mb 65f 61f
6:30 14 15 mph 1018.1mb 65f -
6:24 14 15 mph 1018.1mb 65f -
6:18 14 15 mph 1018.2mb 65f -
6:12 11 14 mph 1018.1mb 65f -
6:06 13 14 mph 1018.1mb 65f -
6:00  -  mph 1018.2mb 64f -
5:54  -  mph 1018.3mb 64f -
5:48  -  mph 1018.2mb 64f -
5:42  -  mph 1018.3mb 64f -
5:36  -  mph 1018.3mb 65f -
5:30 13 14 mph 1018.3mb 64f -
5:24 13 14 mph 1018.4mb 64f -
5:18 13 14 mph 1018.4mb 64f -
5:12  -  mph 1018.4mb 64f 61f
5:06  -  mph 1018.3mb 64f 61f
5:00 15 16 mph 1018.4mb 64f -
4:54 16 17 mph 1018.3mb 64f -
4:48 16 18 mph - 64f -
4:42 16 18 mph - 64f -
4:36 16 17 mph - 64f -
4:30 15 16 mph 1018.5mb 64f -
4:24 14 16 mph 1018.4mb 63f -
4:18 15 16 mph 1018.5mb 64f -
4:12  -  mph 1018.6mb 64f 61f
4:06  -  mph 1018.6mb 63f 61f
4:00  -  mph 1018.7mb 64f -
3:54  -  mph 1018.7mb 64f -
3:48  -  mph 1018.8mb 64f -
3:42 11 13 mph 1018.8mb - 61f
3:36 11 13 mph 1018.8mb - 60f
3:30 11 13 mph 1018.8mb - 60f
3:24 10 13 mph 1018.8mb - 60f
3:18 10 11 mph 1018.9mb - 60f
3:12 10 11 mph 1019mb 63f 61f
3:06 8 11 mph 1019mb 63f 61f
3:00 9 10 mph 1019mb 62f -
2:54 9 10 mph 1019mb 62f -
2:48 9
mph
1019.1mb 62f -
2:42  -  mph 1019.1mb - -
2:36  -  mph 1019.2mb - -
2:30 10 11 mph 1019.2mb 63f 60f
2:24 9 14 mph 1019.2mb 63f 60f
2:18 10 13 mph 1019.2mb 63f 61f
2:12 10 11 mph 1019.3mb 63f 61f
2:06 9 11 mph 1019.4mb 63f 61f
2:00 10 13 mph 1019.4mb 64f 60f
1:54 10 11 mph 1019.4mb 64f 60f
1:48 10 11 mph 1019.4mb 64f 60f
1:42 10 11 mph 1019.4mb 64f 60f
1:36 10 11 mph 1019.3mb 64f 60f
1:30 10 13 mph 1019.4mb 64f 60f
1:24 11 13 mph 1019.4mb 64f 60f
1:18 9 11 mph 1019.5mb 64f 60f
1:12 8 11 mph 1019.5mb 64f 60f
1:06 8 11 mph 1019.6mb 64f 60f
1:00 9 11 mph 1019.6mb 64f 60f
12:54 9 11 mph 1019.5mb 64f 60f
12:48 10 11 mph 1019.5mb 64f 60f
12:42 9 10 mph 1019.5mb 64f 60f
12:36 9 10 mph 1019.6mb 64f 60f
12:30 9 10 mph 1019.6mb 64f 60f
12:24 10 11 mph 1019.7mb 64f 60f
12:18 9 11 mph 1019.7mb 64f 60f
12:12 10 11 mph 1019.8mb 64f 60f
12:06 10 13 mph 1019.7mb 64f 60f
12:00 9 11 mph 1019.7mb 64f 60f
11:54 10 13 mph 1019.7mb 64f 60f
11:48 9 11 mph 1019.7mb 64f 60f
11:42 10 11 mph 1019.7mb 64f 60f
11:36 9 11 mph 1019.7mb 64f 60f
11:30 9 10 mph 1019.8mb 64f 60f
11:24 8 10 mph 1019.7mb 64f 60f
11:18 8 10 mph 1019.7mb 64f 60f
11:12 8 10 mph 1019.6mb 64f 60f
11:06 8 9 mph 1019.6mb 64f 60f
11:00 9 10 mph - - -
10:54 8 9 mph 1019.5mb 64f 60f
10:48 10 11 mph 1019.5mb 64f 60f
10:42 9 11 mph 1019.4mb 64f 60f
10:36 7 8 mph 1019.4mb 64f 60f
10:30 7 8 mph 1019.4mb 64f 60f
10:24 7 9 mph 1019.3mb 64f 60f
10:18 7 9 mph 1019.2mb 64f 60f
10:12 8 10 mph 1019.3mb 64f 60f
10:06 8 9 mph 1019.3mb 64f 60f
10:00 8 9 mph 1019.3mb 64f 60f
9:54 7 9 mph 1019.3mb 64f 60f
9:48 7 9 mph 1019.2mb 64f 60f
9:42 7 8 mph 1019.2mb 64f 60f
9:36 7 9 mph 1019.2mb 64f 60f
9:30 7 8 mph 1019.1mb 64f 60f
9:24 7 9 mph 1019.1mb 64f 60f
9:18 7 8 mph 1019mb 64f 60f
9:12 6 8 mph 1018.9mb 64f 60f
9:06 6 7 mph 1018.9mb 64f 60f
9:00 3 5 mph 1018.8mb 63f 60f
8:54 3 6 mph 1018.8mb 63f 60f
8:48 3 5 mph 1018.8mb 63f 60f
8:36 3 5 mph 1018.7mb 63f 60f
8:30 3 5 mph 1018.6mb 63f 60f
8:12 3
mph
1018.5mb 63f 60f
8:06 3 5 mph 1018.5mb 63f 60f
8:00 3 5 mph 1018.5mb 63f 60f
7:48 3 5 mph 1018.4mb 63f 60f
7:42 3 6 mph 1018.4mb 63f 60f
7:36 5 6 mph 1018.3mb 63f 59f
7:30 5 7 mph 1018.2mb 63f 59f
7:24 5 7 mph 1018.3mb 63f 59f
7:18 6 7 mph 1018.2mb 63f 59f
7:12 5 6 mph 1018.1mb 63f 59f
7:06 2 6 mph 1018.1mb 63f 60f
6:54 5 7 mph 1018mb 63f 58f
6:48 6 9 mph 1018mb 63f 59f
6:42 6 7 mph 1017.9mb 63f 59f
6:30 5 7 mph 1017.8mb 63f 59f
6:18 3 6 mph 1017.8mb 63f 58f
6:12 3 5 mph 1017.8mb 63f 58f
6:00 3 6 mph 1017.7mb 63f 58f
5:54 1 2 mph 1017.6mb 63f 57f
5:48 2 3 mph 1017.6mb 63f 57f
5:42 2 3 mph 1017.5mb 62f 57f
5:36 2 5 mph 1017.5mb 62f 57f
5:30 3 6 mph 1017.4mb 62f 57f
5:24 5 6 mph 1017.4mb 62f 57f
5:18 6
mph
1017.4mb 62f 57f
5:12 6 8 mph 1017.4mb 62f 57f
5:06 7 8 mph 1017.2mb 62f 57f
5:00 6
mph
1017.2mb 62f 57f
4:54 2 3 mph 1017.2mb 62f 57f
4:48 3
mph
1017.1mb 61f 57f
4:42 3
mph
1017.2mb 61f 57f
4:36 3 5 mph 1017.3mb 61f 57f
4:30 5 6 mph 1017.3mb 61f 57f
4:24 3 5 mph 1017.3mb 61f 57f
4:18 3 5 mph 1017.4mb 61f 57f
4:12 1 3 mph 1017.4mb 61f 57f
4:06  -  3 mph 1017.3mb 61f 57f
4:00 3
mph
1017.3mb 62f 57f
3:54 2 3 mph 1017.4mb 62f 57f
3:48 2 3 mph 1017.4mb 62f 57f
3:42 2 3 mph 1017.3mb 62f 57f
3:36 3 5 mph 1017.3mb 62f 57f
3:30 5 6 mph 1017.2mb 62f 57f
3:24 6
mph
1017.2mb 62f 57f
3:18 6
mph
1017.3mb 62f 57f
3:12 6
mph
1017.3mb 62f 57f
3:06 5 6 mph 1017.4mb 62f 57f
3:00 5 6 mph 1017.4mb 62f 57f
2:54 6
mph
1017.4mb 62f 57f
2:48 5 6 mph 1017.4mb 62f 57f
2:42 5
mph
1017.4mb 62f 57f
2:36 3 5 mph 1017.4mb 62f 57f
2:30 3 5 mph 1017.2mb 62f 57f
2:24 5
mph
1017.3mb 63f 57f
2:18 5
mph
1017.3mb 63f 58f
2:12 3 5 mph 1017.4mb 64f 58f
2:06 2 3 mph 1017.4mb 64f 58f
2:00 1 3 mph 1017.4mb 64f 58f
1:54 2 3 mph 1017.4mb 64f 58f
1:48 3 6 mph 1017.5mb 64f 58f
1:42 3 5 mph 1017.6mb 64f 58f
1:36 3
mph
1017.6mb 64f 58f
1:30 2 3 mph 1017.7mb 64f 58f
1:24 3 5 mph 1017.7mb 64f 58f
1:18 5
mph
1017.8mb 64f 58f
1:12 3 5 mph 1017.8mb 63f 58f
1:06 2 5 mph 1017.8mb 64f 58f
1:00 2 5 mph 1017.8mb 63f 58f
12:54 3 5 mph 1017.8mb 64f 58f
12:48 3 5 mph 1017.8mb 64f 58f
12:42 3 5 mph 1017.8mb 64f 58f
12:36 3 6 mph 1017.8mb 64f 58f
12:30 5 6 mph 1017.8mb 64f 58f
12:24 5 7 mph 1017.8mb 64f 58f
12:12 5 7 mph 1017.8mb 64f 58f
12:06 6 7 mph 1017.8mb 64f 59f
12:00 5 7 mph 1017.8mb 64f 58f
Ter 05/24 11:54 6 9 mph 1017.8mb 64f 59f
11:48 7 9 mph 1017.8mb 64f 59f
11:42 8 10 mph 1017.8mb 65f 59f
11:36 8 9 mph 1017.9mb 65f 59f
11:30 8 9 mph 1017.9mb 65f 59f
11:24 7 8 mph 1017.9mb 65f 59f
11:18 7 9 mph 1017.9mb 65f 59f
11:12 7 8 mph 1017.9mb 65f 59f
11:06 8 10 mph 1018mb 65f 59f
11:00 8 10 mph 1018mb 65f 59f
10:54 9 10 mph 1018mb 65f 59f
10:48 8 10 mph 1018.1mb 65f 60f
10:42 9 10 mph 1018.1mb 65f 60f
10:36 9 10 mph 1018mb 65f 59f
10:30 9 11 mph 1018mb 65f 59f
10:24 9 10 mph 1017.9mb 65f 60f
10:18 8 10 mph 1017.9mb 65f 60f
10:12 8 9 mph 1017.9mb 65f 60f
10:06 8 9 mph 1017.8mb 65f 60f
10:00 8 10 mph 1017.8mb 65f 60f
9:54 8 10 mph 1017.8mb 65f 60f
9:48 8 10 mph 1017.8mb 65f 60f
9:42 9 11 mph 1017.8mb 65f 60f
9:36 9 11 mph 1017.7mb 65f 60f
9:30 9 11 mph 1017.6mb 65f 60f
9:24 10 11 mph 1017.6mb 65f 60f
9:18 11 13 mph 1017.6mb 65f 60f
9:12 11 13 mph 1017.5mb 66f 60f
9:06 11 14 mph 1017.4mb 66f 60f
9:00 13 14 mph 1017.4mb 66f 60f
8:54 11 13 mph 1017.4mb 66f 60f
8:48  -  mph 1017.3mb 66f 60f
8:42  -  mph 1017.3mb 66f 60f
8:36  -  mph 1017.3mb 66f 60f
8:30 15 16 mph 1017.3mb 66f 60f
8:24 14 15 mph 1017.3mb 66f 60f
8:18 13 15 mph 1017.3mb 66f 60f
8:12  -  mph 1017.2mb 66f 60f
8:00 11 14 mph 1017mb 66f 60f
7:54 13 14 mph 1017mb 66f 60f
7:48 13 14 mph 1017mb 66f 60f
7:42 11 14 mph - - 60f
7:36 11 15 mph - - 60f
7:30 13 14 mph - 66f -
7:24 14 15 mph - 66f -
7:18 13 15 mph - 66f -
7:12  -  mph 1016.7mb 66f 60f
7:06  -  mph 1016.7mb 66f 60f
7:00  -  mph 1016.7mb 66f 60f
6:54  -  mph 1016.6mb 66f 60f
6:48  -  mph 1016.6mb 66f 60f
6:42  -  mph 1016.6mb - -
6:36  -  mph 1016.6mb - -
6:30 15 17 mph 1016.7mb 66f -
6:24 15 17 mph 1016.7mb 66f -